Milford, UT

11:16 AM MDT on April 24, 2017 (GMT -0600)
Milford Municipal

Weather History for KMLF - May, 2013

Change the Weather History Date:

Monday, May 13, 2013

  Actual Average Record
Temperature  
Mean Temperature 66 °F -  
Max Temperature 89 °F 72 °F 89 °F (2013)
Min Temperature 43 °F 37 °F 28 °F (2000)
Cooling Degree Days 1    
Growing Degree Days 16 (Base 50)    
Moisture  
Dew Point 26 °F    
Average Humidity 23    
Maximum Humidity 58    
Minimum Humidity 4    
Precipitation  
Precipitation 0.00 in - - ()
Sea Level Pressure  
Sea Level Pressure 29.98 in    
Wind  
Wind Speed 10 mph (SSW)    
Max Wind Speed 17 mph    
Max Gust Speed 21 mph    
Visibility 10 miles    
Events      
Averages and records for this station are not official NWS values.
T = Trace of Precipitation, MM = Missing Value Source: NWS Daily Summary

Daily Weather History Graph

Daily Weather History Graph

Search for Another Location

Airport or City:

Trip Planner

Search our weather history database for the weather conditions in past years. The results will help you decide how hot, cold, wet, or windy it might be!

Date:

Astronomy

May. 13, 2013 Rise Set
Actual Time 6:22 AM MDT 8:35 PM MDT
Civil Twilight 5:52 AM MDT 9:04 PM MDT
Nautical Twilight 5:16 AM MDT 9:41 PM MDT
Astronomical Twilight 4:36 AM MDT 10:21 PM MDT
Moon 9:11 AM MDT (5/13) 11:47 PM MDT (5/13)
Length of Visible Light 15h 12m
Length of Day
14h 13m
Waxing Crescent, 12% of the Moon is Illuminated
May 13
Waxing Crescent
May 17
First Quarter
May 24
Full
May 31
Last Quarter
Jun 8
New

Hourly Weather History & Observations

Time (MDT) Temp. Windchill Dew Point Humidity Pressure Visibility Wind Dir Wind Speed Gust Speed Precip Events Conditions
12:52 AM 57.0 °F - 26.1 °F 30% 30.04 in 10.0 mi WSW 8.1 mph - N/A   Clear
1:52 AM 52.0 °F - 26.1 °F 37% 30.04 in 10.0 mi WSW 6.9 mph - N/A   Clear
2:52 AM 48.9 °F - 26.1 °F 41% 30.04 in 10.0 mi South 5.8 mph - N/A   Clear
3:52 AM 46.0 °F 41.9 °F 28.0 °F 50% 30.05 in 10.0 mi SW 8.1 mph - N/A   Clear
4:52 AM 46.9 °F - 30.0 °F 52% 30.04 in 10.0 mi SSW 8.1 mph - N/A   Clear
5:52 AM 43.0 °F 38.8 °F 28.9 °F 58% 30.06 in 10.0 mi South 6.9 mph - N/A   Clear
6:52 AM 46.0 °F 41.9 °F 30.9 °F 56% 30.07 in 10.0 mi South 8.1 mph - N/A   Clear
7:52 AM 53.1 °F - 33.1 °F 47% 30.08 in 10.0 mi South 8.1 mph - N/A   Clear
8:52 AM 64.0 °F - 33.1 °F 31% 30.07 in 10.0 mi South 9.2 mph - N/A   Clear
9:52 AM 73.9 °F - 28.9 °F 19% 30.04 in 10.0 mi South 9.2 mph - N/A   Clear
10:52 AM 79.0 °F - 25.0 °F 14% 30.04 in 10.0 mi SSW 11.5 mph - N/A   Clear
11:52 AM 82.9 °F - 24.1 °F 12% 30.02 in 10.0 mi South 12.7 mph - N/A   Clear
12:52 PM 84.9 °F - 23.0 °F 10% 30.01 in 10.0 mi SSE 13.8 mph 18.4 mph N/A   Clear
2:52 PM 88.0 °F - 21.0 °F 9% 29.98 in 10.0 mi SSW 12.7 mph 18.4 mph N/A   Clear
3:52 PM 88.0 °F - 21.0 °F 9% 29.96 in 10.0 mi SSE 12.7 mph - N/A   Clear
4:52 PM 88.0 °F - 19.9 °F 8% 29.92 in 10.0 mi South 12.7 mph - N/A   Clear
5:52 PM 87.1 °F - 21.9 °F 9% 29.91 in 10.0 mi SSE 12.7 mph - N/A   Clear
6:52 PM 87.1 °F - 21.0 °F 9% 29.89 in 10.0 mi SW 17.3 mph 20.7 mph N/A   Clear
7:52 PM 80.1 °F - 24.1 °F 13% 29.89 in 10.0 mi SSW 11.5 mph - N/A   Clear
8:52 PM 75.0 °F - 24.1 °F 15% 29.88 in 10.0 mi SSW 10.4 mph - N/A   Clear
9:52 PM 69.1 °F - 30.0 °F 23% 29.88 in 10.0 mi South 6.9 mph - N/A   Clear
10:52 PM 68.0 °F - 27.0 °F 21% 29.88 in 10.0 mi South 11.5 mph - N/A   Clear
11:52 PM 70.0 °F - 23.0 °F 17% 29.85 in 10.0 mi South 15.0 mph - N/A   Clear